TimeCST,TemperatureF,Dew PointF,Humidity,Sea Level PressureIn,VisibilityMPH,Wind Direction,Wind SpeedMPH,Gust SpeedMPH,PrecipitationIn,Events,Conditions,WindDirDegrees,DateUTC
12:53 AM,46.9,33.1,59,29.72,10.0,SSW,6.9,-,N/A,,Clear,210,2012-11-09 06:53:00
1:53 AM,46.9,33.1,59,29.70,10.0,SW,5.8,-,N/A,,Clear,230,2012-11-09 07:53:00
2:53 AM,48.9,30.0,48,29.69,10.0,SW,9.2,-,N/A,,Clear,230,2012-11-09 08:53:00
3:53 AM,48.9,28.9,46,29.69,10.0,SW,6.9,-,N/A,,Clear,230,2012-11-09 09:53:00
4:53 AM,50.0,28.9,44,29.69,10.0,SW,4.6,-,N/A,,Clear,220,2012-11-09 10:53:00
5:53 AM,46.9,28.9,50,29.70,10.0,SW,6.9,-,N/A,,Clear,220,2012-11-09 11:53:00
6:53 AM,45.0,28.9,53,29.72,10.0,South,4.6,-,N/A,,Clear,180,2012-11-09 12:53:00
7:53 AM,46.0,30.0,54,29.72,10.0,SSW,4.6,-,N/A,,Clear,210,2012-11-09 13:53:00
8:53 AM,55.9,30.9,39,29.72,10.0,SW,16.1,21.9,N/A,,Clear,220,2012-11-09 14:53:00
9:53 AM,64.9,30.9,28,29.68,10.0,SW,13.8,-,N/A,,Clear,230,2012-11-09 15:53:00
10:53 AM,73.0,30.0,20,29.65,10.0,SSW,20.7,-,N/A,,Clear,210,2012-11-09 16:53:00
11:53 AM,77.0,28.0,17,29.62,10.0,SSW,23.0,28.8,N/A,,Clear,200,2012-11-09 17:53:00
12:53 PM,80.1,28.9,15,29.60,10.0,SW,29.9,39.1,N/A,,Clear,220,2012-11-09 18:53:00
1:53 PM,80.1,28.9,15,29.58,10.0,SW,27.6,41.4,N/A,,Clear,230,2012-11-09 19:53:00
2:53 PM,81.0,30.0,16,29.56,10.0,SW,25.3,31.1,N/A,,Clear,220,2012-11-09 20:53:00
3:53 PM,80.1,28.0,15,29.56,10.0,SSW,24.2,35.7,N/A,,Clear,210,2012-11-09 21:53:00
4:53 PM,78.1,30.0,17,29.57,10.0,SSW,19.6,-,N/A,,Clear,210,2012-11-09 22:53:00
5:53 PM,72.0,30.9,22,29.60,10.0,SSW,13.8,-,N/A,,Clear,210,2012-11-09 23:53:00
6:53 PM,69.1,34.0,27,29.62,10.0,SSW,17.3,-,N/A,,Clear,200,2012-11-10 00:53:00
7:53 PM,66.0,37.0,34,29.63,10.0,SSW,12.7,-,N/A,,Clear,210,2012-11-10 01:53:00
8:53 PM,64.9,37.0,36,29.62,10.0,SSW,24.2,-,N/A,,Clear,210,2012-11-10 02:53:00
9:53 PM,64.9,37.9,37,29.62,10.0,SW,23.0,31.1,N/A,,Clear,220,2012-11-10 03:53:00
10:53 PM,64.0,37.9,38,29.60,10.0,SSW,21.9,29.9,N/A,,Clear,210,2012-11-10 04:53:00
11:53 PM,64.0,39.9,41,29.60,10.0,SSW,20.7,-,N/A,,Clear,210,2012-11-10 05:53:00